| time (UTC) | temp F | wind direction | speed MPH | gust MPH | rain 1hr in | rain 24hr in | rain mn in | humidity % | barometer mb |
| 20260906224603 | 65 | 338 | 3.0 | 8.0 | 0.00 | 0.02 | 0.01 | 72 | 1015.0 |
| 20260906223059 | 65 | 13 | 3.0 | 9.0 | 0.00 | 0.02 | 0.01 | 73 | 1015.1 |
| 20260906221555 | 65 | 355 | 4.0 | 9.0 | 0.00 | 0.02 | 0.01 | 72 | 1015.1 |
| 20260906220053 | 65 | 342 | 6.0 | 11.0 | 0.00 | 0.02 | 0.01 | 72 | 1015.0 |
| 20260906214552 | 64 | 37 | 4.0 | 12.0 | 0.00 | 0.02 | 0.01 | 74 | 1015.2 |
| 20260906213054 | 64 | 323 | 8.0 | 13.0 | 0.00 | 0.02 | 0.01 | 74 | 1015.1 |
| 20260906211547 | 64 | 33 | 9.0 | 15.0 | 0.00 | 0.02 | 0.01 | 74 | 1015.1 |
| 20260906210046 | 63 | 44 | 9.0 | 12.0 | 0.00 | 0.02 | 0.01 | 76 | 1015.3 |
| 20260906204546 | 63 | 41 | 7.0 | 13.0 | 0.00 | 0.02 | 0.01 | 75 | 1015.4 |
| 20260906203045 | 64 | 27 | 6.0 | 14.0 | 0.00 | 0.02 | 0.01 | 74 | 1015.4 |
| 20260906201604 | 64 | 34 | 7.0 | 13.0 | 0.00 | 0.02 | 0.01 | 74 | 1015.3 |
| 20260906200039 | 64 | 27 | 6.0 | 14.0 | 0.00 | 0.02 | 0.01 | 73 | 1015.5 |
| 20260906194547 | 65 | 349 | 7.0 | 16.0 | 0.00 | 0.02 | 0.01 | 71 | 1015.3 |
| 20260906193040 | 64 | 20 | 11.0 | 18.0 | 0.00 | 0.02 | 0.01 | 71 | 1015.1 |
| 20260906191532 | 63 | 34 | 10.0 | 19.0 | 0.00 | 0.02 | 0.01 | 72 | 1015.1 |
| 20260906190029 | 63 | 17 | 10.0 | 17.0 | 0.00 | 0.02 | 0.01 | 72 | 1015.4 |
| 20260906184522 | 62 | 11 | 8.0 | 20.0 | 0.00 | 0.02 | 0.01 | 74 | 1015.5 |
| 20260906183020 | 61 | 32 | 12.0 | 21.0 | 0.00 | 0.02 | 0.01 | 75 | 1015.5 |
| 20260906181550 | 60 | 53 | 16.0 | 20.0 | 0.00 | 0.02 | 0.01 | 79 | 1015.5 |
| 20260906180042 | 57 | 23 | 9.0 | 14.0 | 0.00 | 0.02 | 0.01 | 84 | 1016.3 |
| 20260906174508 | 56 | 307 | 6.0 | 12.0 | 0.00 | 0.02 | 0.01 | 85 | 1016.8 |
| 20260906173008 | 56 | 38 | 7.0 | 13.0 | 0.00 | 0.02 | 0.01 | 86 | 1016.9 |
| 20260906171505 | 56 | 38 | 7.0 | 12.0 | 0.00 | 0.02 | 0.01 | 87 | 1016.9 |
| 20260906170004 | 56 | 4 | 5.0 | 11.0 | 0.01 | 0.02 | 0.01 | 88 | 1016.9 |
| 20260906164506 | 56 | 8 | 4.0 | 12.0 | 0.01 | 0.02 | 0.01 | 88 | 1017.1 |
| 20260906163003 | 57 | 32 | 6.0 | 12.0 | 0.01 | 0.02 | 0.01 | 91 | 1017.1 |
| 20260906161605 | 57 | 39 | 6.0 | 12.0 | 0.01 | 0.02 | 0.01 | 91 | 1016.9 |
| 20260906160058 | 56 | 359 | 4.0 | 7.0 | 0.00 | 0.01 | 0.00 | 90 | 1017.2 |
| 20260906154557 | 56 | 354 | 3.0 | 7.0 | 0.00 | 0.01 | 0.00 | 89 | 1017.5 |
| 20260906153111 | 57 | 304 | 5.0 | 9.0 | 0.00 | 0.01 | 0.00 | 86 | 1017.8 |
| 20260906151555 | 58 | 326 | 3.0 | 7.0 | 0.00 | 0.01 | 0.00 | 89 | 1017.7 |
| 20260906150057 | 58 | 22 | 2.0 | 7.0 | 0.00 | 0.01 | 0.00 | 89 | 1017.7 |
| 20260906144559 | 57 | 30 | 5.0 | 9.0 | 0.00 | 0.01 | 0.00 | 90 | 1017.6 |
| 20260906143049 | 56 | 30 | 7.0 | 10.0 | 0.00 | 0.01 | 0.00 | 91 | 1017.3 |
| 20260906141516 | 55 | 48 | 5.0 | 8.0 | 0.00 | 0.01 | 0.00 | 92 | 1017.6 |
| 20260906140019 | 55 | 20 | 2.0 | 6.0 | 0.00 | 0.02 | 0.00 | 93 | 1017.8 |
| 20260906134512 | 54 | 40 | 6.0 | 9.0 | 0.00 | 0.02 | 0.00 | 93 | 1017.4 |
| 20260906133012 | 54 | 18 | 3.0 | 7.0 | 0.00 | 0.02 | 0.00 | 93 | 1017.3 |
| 20260906131511 | 54 | 33 | 5.0 | 8.0 | 0.00 | 0.02 | 0.00 | 93 | 1017.4 |
| 20260906130015 | 54 | 25 | 3.0 | 6.0 | 0.00 | 0.02 | 0.00 | 93 | 1017.6 |
| 20260906124508 | 53 | 345 | 1.0 | 9.0 | 0.00 | 0.02 | 0.00 | 93 | 1017.7 |
| 20260906123019 | 53 | 293 | 4.0 | 9.0 | 0.00 | 0.02 | 0.00 | 93 | 1017.4 |
| 20260906121505 | 53 | 52 | 7.0 | 10.0 | 0.00 | 0.02 | 0.00 | 92 | 1017.4 |
| 20260906120005 | 54 | 330 | 4.0 | 9.0 | 0.00 | 0.02 | 0.00 | 92 | 1017.6 |
| 20260906114502 | 54 | 348 | 4.0 | 10.0 | 0.00 | 0.02 | 0.00 | 92 | 1017.5 |
| 20260906113002 | 54 | 43 | 5.0 | 10.0 | 0.00 | 0.02 | 0.00 | 93 | 1017.6 |
| 20260906111625 | 54 | 358 | 4.0 | 11.0 | 0.00 | 0.02 | 0.00 | 92 | 1017.7 |
| 20260906110100 | 54 | 38 | 7.0 | 12.0 | 0.00 | 0.02 | 0.00 | 92 | 1017.7 |
| 20260906104601 | 54 | 1 | 7.0 | 12.0 | 0.00 | 0.02 | 0.00 | 92 | 1017.6 |
| 20260906103056 | 54 | 18 | 8.0 | 12.0 | 0.00 | 0.02 | 0.00 | 92 | 1017.7 |
| 20260906101555 | 54 | 33 | 7.0 | 11.0 | 0.00 | 0.02 | 0.00 | 92 | 1017.9 |
| 20260906100053 | 53 | 8 | 6.0 | 14.0 | 0.00 | 0.02 | 0.00 | 92 | 1017.7 |
| 20260906094548 | 53 | 34 | 6.0 | 11.0 | 0.00 | 0.02 | 0.00 | 92 | 1017.6 |
| 20260906093054 | 53 | 20 | 6.0 | 13.0 | 0.00 | 0.02 | 0.00 | 92 | 1017.7 |
| 20260906091543 | 53 | 3 | 8.0 | 13.0 | 0.00 | 0.02 | 0.00 | 92 | 1017.8 |
| 20260906090041 | 53 | 11 | 8.0 | 12.0 | 0.00 | 0.02 | 0.00 | 92 | 1018.1 |
| 20260906084537 | 53 | 27 | 6.0 | 14.0 | 0.00 | 0.02 | 0.00 | 91 | 1018.2 |
| 20260906083035 | 53 | 1 | 5.0 | 12.0 | 0.00 | 0.02 | 0.00 | 91 | 1018.4 |
| 20260906081546 | 54 | 56 | 6.0 | 14.0 | 0.00 | 0.02 | 0.00 | 90 | 1018.3 |
| 20260906080029 | 54 | 30 | 7.0 | 16.0 | 0.00 | 0.02 | 0.00 | 89 | 1018.4 |
| 20260906074627 | 54 | 30 | 10.0 | 15.0 | 0.00 | 0.02 | 0.00 | 89 | 1018.4 |
| 20260906073058 | 55 | 18 | 9.0 | 17.0 | 0.00 | 0.02 | 0.00 | 88 | 1018.6 |
| 20260906071550 | 55 | 44 | 10.0 | 16.0 | 0.00 | 0.02 | 0.00 | 88 | 1018.7 |
| 20260906070055 | 55 | 348 | 8.0 | 13.0 | 0.00 | 0.02 | 0.00 | 88 | 1018.9 |
| 20260906064545 | 55 | 357 | 5.0 | 12.0 | 0.00 | 0.02 | 0.00 | 88 | 1019.3 |
| 20260906064543 | 55 | 35 | 5.0 | 12.0 | 0.00 | 0.02 | 0.00 | 88 | 1019.3 |
| 20260906063041 | 55 | 22 | 6.0 | 14.0 | 0.00 | 0.02 | 0.00 | 87 | 1019.2 |
| 20260906061547 | 55 | 339 | 5.0 | 14.0 | 0.00 | 0.02 | 0.00 | 87 | 1019.1 |
| 20260906060033 | 55 | 45 | 6.0 | 12.0 | 0.00 | 0.02 | 0.02 | 87 | 1019.2 |
| 20260906054533 | 56 | 16 | 6.0 | 14.0 | 0.00 | 0.02 | 0.02 | 86 | 1019.1 |
| 20260906053037 | 55 | 13 | 7.0 | 16.0 | 0.00 | 0.02 | 0.02 | 86 | 1019.0 |
| 20260906051532 | 55 | 335 | 9.0 | 18.0 | 0.00 | 0.02 | 0.02 | 86 | 1018.9 |
| 20260906050032 | 56 | 27 | 8.0 | 15.0 | 0.00 | 0.02 | 0.02 | 86 | 1018.9 |
| 20260906044528 | 55 | 21 | 5.0 | 12.0 | 0.00 | 0.02 | 0.02 | 86 | 1019.2 |
| 20260906043039 | 55 | 15 | 8.0 | 16.0 | 0.01 | 0.02 | 0.02 | 86 | 1018.7 |
| 20260906041627 | 56 | 30 | 8.0 | 14.0 | 0.01 | 0.02 | 0.02 | 85 | 1018.3 |
| 20260906040026 | 56 | 8 | 7.0 | 15.0 | 0.01 | 0.02 | 0.02 | 84 | 1018.6 |
| 20260906034527 | 57 | 358 | 10.0 | 19.0 | 0.01 | 0.02 | 0.02 | 82 | 1018.6 |
| 20260906033025 | 59 | 338 | 13.0 | 18.0 | 0.00 | 0.01 | 0.01 | 72 | 1018.8 |
| 20260906031521 | 58 | 10 | 8.0 | 16.0 | 0.00 | 0.01 | 0.01 | 73 | 1018.2 |
| 20260906030019 | 58 | 30 | 11.0 | 18.0 | 0.00 | 0.01 | 0.01 | 73 | 1017.7 |
| 20260906024518 | 58 | 348 | 9.0 | 18.0 | 0.00 | 0.01 | 0.01 | 71 | 1017.6 |
| 20260906023019 | 59 | 12 | 10.0 | 18.0 | 0.00 | 0.01 | 0.01 | 70 | 1017.5 |
| 20260906021518 | 59 | 344 | 10.0 | 17.0 | 0.00 | 0.01 | 0.01 | 69 | 1017.4 |
| 20260906020015 | 60 | 63 | 10.0 | 19.0 | 0.00 | 0.01 | 0.01 | 69 | 1017.7 |
| 20260906014525 | 61 | 2 | 10.0 | 19.0 | 0.00 | 0.01 | 0.01 | 67 | 1017.6 |
| 20260906013015 | 62 | 316 | 8.0 | 17.0 | 0.00 | 0.01 | 0.01 | 65 | 1017.5 |
| 20260906011514 | 63 | 321 | 7.0 | 15.0 | 0.00 | 0.01 | 0.01 | 62 | 1017.6 |
| 20260906010044 | 65 | 360 | 8.0 | 13.0 | 0.00 | 0.01 | 0.01 | 59 | 1017.5 |
| 20260906004544 | 67 | 356 | 8.0 | 17.0 | 0.00 | 0.01 | 0.01 | 55 | 1017.7 |
| 20260906003040 | 68 | 24 | 8.0 | 17.0 | 0.00 | 0.01 | 0.01 | 54 | 1017.7 |
| 20260906001540 | 69 | 313 | 8.0 | 17.0 | 0.00 | 0.01 | 0.01 | 52 | 1017.6 |
| 20260906000042 | 69 | 346 | 7.0 | 17.0 | 0.00 | 0.01 | 0.01 | 52 | 1017.9 |
| 20260905234551 | 71 | 45 | 8.0 | 14.0 | 0.00 | 0.01 | 0.01 | 49 | 1018.2 |
| 20260905233037 | 72 | 15 | 8.0 | 15.0 | 0.00 | 0.01 | 0.01 | 46 | 1018.2 |
| 20260905231536 | 72 | 44 | 6.0 | 14.0 | 0.00 | 0.01 | 0.01 | 44 | 1017.8 |
| 20260905230042 | 73 | 24 | 8.0 | 14.0 | 0.00 | 0.01 | 0.01 | 44 | 1017.6 |